OCN193 ESGG-EDDF

Flight info

Callsign OCN193
Flight time N/A
Altitude 37000
Route TOPLA L996 ERNOV DCT NIKDA/N0435F380 DCT NOBRI DCT BUMIL DCT HLZ DCT RIMET/N0397F310 T157 KOKEB/N0346F230 T157 KERAX KERAX5A
Aircraft A20N/M-SDE2E3FGHIRWXY/LB1

Departure

Time 2026-05-07 15:40
Airport Göteborg Landvetter Airport (ESGG)

Arrival

Time N/A
Airport Frankfurt Main Airport (EDDF)
Time Latitude Longitude Altitude Speed Heading
2026-05-07 15:10 57.66676 12.29237 507 ft 0 kts 116°
2026-05-07 15:23 57.66676 12.29234 507 ft 0 kts 116°
2026-05-07 15:23 57.66677 12.29230 507 ft 0 kts 116°
2026-05-07 15:23 57.66681 12.29216 507 ft 1 kts 116°
2026-05-07 15:23 57.66682 12.29212 507 ft 0 kts 116°
2026-05-07 15:24 57.66683 12.29207 507 ft 1 kts 116°
2026-05-07 15:24 57.66686 12.29196 507 ft 0 kts 116°
2026-05-07 15:24 57.66689 12.29185 507 ft 2 kts 116°
2026-05-07 15:25 57.66695 12.29161 507 ft 2 kts 114°
2026-05-07 15:25 57.66701 12.29134 507 ft 2 kts 97°
2026-05-07 15:25 57.66701 12.29104 507 ft 3 kts 68°
2026-05-07 15:25 57.66692 12.29080 507 ft 0 kts 41°
2026-05-07 15:29 57.66696 12.29085 507 ft 2 kts 38°
2026-05-07 15:30 57.66707 12.29101 507 ft 0 kts 35°
2026-05-07 15:30 57.66719 12.29114 507 ft 4 kts 31°
2026-05-07 15:30 57.66740 12.29135 507 ft 0 kts 27°
2026-05-07 15:31 57.66741 12.29137 507 ft 1 kts 27°
2026-05-07 15:31 57.66749 12.29144 507 ft 1 kts 27°
2026-05-07 15:31 57.66752 12.29147 508 ft 1 kts 27°
2026-05-07 15:31 57.66753 12.29148 508 ft 1 kts 27°
2026-05-07 15:32 57.66757 12.29152 508 ft 0 kts 27°
2026-05-07 15:32 57.66762 12.29149 508 ft 1 kts 349°
2026-05-07 15:32 57.66771 12.29120 508 ft 6 kts 303°
2026-05-07 15:32 57.66808 12.29026 508 ft 10 kts 323°
2026-05-07 15:33 57.66883 12.29032 508 ft 12 kts 21°
2026-05-07 15:33 57.66969 12.29107 509 ft 15 kts 25°
2026-05-07 15:33 57.67073 12.29199 510 ft 18 kts 25°
2026-05-07 15:33 57.67193 12.29311 512 ft 20 kts 28°
2026-05-07 15:34 57.67271 12.29389 512 ft 0 kts 28°
2026-05-07 15:34 57.67274 12.29392 512 ft 3 kts 28°
2026-05-07 15:34 57.67319 12.29436 513 ft 9 kts 27°
2026-05-07 15:34 57.67329 12.29446 513 ft 1 kts 27°
2026-05-07 15:35 57.67370 12.29469 513 ft 11 kts
2026-05-07 15:35 57.67444 12.29360 514 ft 17 kts 294°
2026-05-07 15:35 57.67458 12.29272 514 ft 0 kts 276°
2026-05-07 15:38 57.67459 12.29258 514 ft 4 kts 273°
2026-05-07 15:38 57.67456 12.29155 512 ft 12 kts 258°
2026-05-07 15:38 57.67397 12.28995 512 ft 8 kts 205°
2026-05-07 15:39 57.67395 12.28993 512 ft 0 kts 205°
2026-05-07 15:39 57.67391 12.28989 512 ft 8 kts 205°
2026-05-07 15:39 57.67107 12.28724 512 ft 82 kts 206°
2026-05-07 15:40 57.66408 12.28095 502 ft 137 kts 203°
2026-05-07 15:40 57.65459 12.27221 725 ft 161 kts 208°
2026-05-07 15:40 57.64441 12.26322 1359 ft 161 kts 209°
2026-05-07 15:40 57.63398 12.25377 2031 ft 170 kts 209°
2026-05-07 15:41 57.62303 12.24376 2742 ft 183 kts 208°
2026-05-07 15:41 57.61110 12.23261 3382 ft 202 kts 209°
2026-05-07 15:41 57.59807 12.21988 4044 ft 220 kts 208°
2026-05-07 15:41 57.58296 12.21032 4678 ft 240 kts 183°
2026-05-07 15:42 57.56593 12.21498 5365 ft 259 kts 162°
2026-05-07 15:42 57.54816 12.22474 5845 ft 269 kts 167°
2026-05-07 15:42 57.52969 12.23133 5996 ft 271 kts 169°
2026-05-07 15:42 57.51131 12.23734 6009 ft 271 kts 170°
2026-05-07 15:43 57.49270 12.24293 6008 ft 271 kts 171°
2026-05-07 15:43 57.47411 12.24821 6009 ft 271 kts 171°
2026-05-07 15:43 57.45546 12.25331 6016 ft 271 kts 171°
2026-05-07 15:43 57.43679 12.25835 6013 ft 271 kts 171°
2026-05-07 15:44 57.41810 12.26342 6018 ft 271 kts 172°
2026-05-07 15:44 57.39944 12.26841 6022 ft 271 kts 171°
2026-05-07 15:44 57.38071 12.27342 6025 ft 272 kts 171°
2026-05-07 15:44 57.36186 12.27848 6245 ft 276 kts 171°
2026-05-07 15:45 57.34273 12.28365 7040 ft 278 kts 172°
2026-05-07 15:45 57.32368 12.28880 8264 ft 277 kts 173°
2026-05-07 15:45 57.30447 12.29400 9358 ft 283 kts 173°
2026-05-07 15:45 57.28475 12.29933 10395 ft 289 kts 173°
2026-05-07 15:46 57.24193 12.31078 11419 ft 334 kts 173°
2026-05-07 15:46 57.21851 12.31701 12178 ft 344 kts 173°
2026-05-07 15:46 57.19474 12.32342 13133 ft 349 kts 174°
2026-05-07 15:47 57.17058 12.32990 14063 ft 354 kts 173°
2026-05-07 15:47 57.14597 12.33645 14734 ft 358 kts 173°
2026-05-07 15:47 57.12121 12.34299 14997 ft 360 kts 174°
2026-05-07 15:47 57.09630 12.34925 15098 ft 361 kts 174°
2026-05-07 15:48 57.07147 12.35533 15107 ft 361 kts 174°
2026-05-07 15:48 57.04652 12.36144 15110 ft 360 kts 174°
2026-05-07 15:48 57.02165 12.36753 15111 ft 360 kts 174°
2026-05-07 15:48 56.99710 12.37357 15112 ft 361 kts 174°
2026-05-07 15:49 56.97190 12.37979 15108 ft 361 kts 174°
2026-05-07 15:49 56.94704 12.38592 15110 ft 361 kts 174°
2026-05-07 15:49 56.92248 12.39196 15115 ft 361 kts 174°
2026-05-07 15:49 56.89754 12.39811 15114 ft 361 kts 174°
2026-05-07 15:50 56.87269 12.40421 15115 ft 361 kts 174°
2026-05-07 15:50 56.84773 12.41032 15281 ft 365 kts 174°
2026-05-07 15:50 56.82214 12.41658 16114 ft 366 kts 174°
2026-05-07 15:50 56.79711 12.42272 16989 ft 369 kts 174°
2026-05-07 15:51 56.77155 12.42895 17787 ft 373 kts 174°
2026-05-07 15:51 56.74557 12.43528 18563 ft 378 kts 174°
2026-05-07 15:51 56.71942 12.44166 19263 ft 382 kts 174°
2026-05-07 15:51 56.69297 12.44810 19953 ft 386 kts 174°
2026-05-07 15:52 56.66620 12.45462 20630 ft 390 kts 174°
2026-05-07 15:52 56.63924 12.46118 21313 ft 394 kts 174°
2026-05-07 15:52 56.61189 12.46781 21980 ft 398 kts 174°
2026-05-07 15:52 56.58417 12.47453 22652 ft 402 kts 174°
2026-05-07 15:53 56.55631 12.48127 23296 ft 407 kts 174°
2026-05-07 15:53 56.52799 12.48811 23915 ft 411 kts 174°
2026-05-07 15:53 56.49963 12.49494 24460 ft 414 kts 174°
2026-05-07 15:53 56.47097 12.50184 24976 ft 418 kts 174°
2026-05-07 15:54 56.44198 12.50882 25516 ft 421 kts 174°
2026-05-07 15:54 56.41276 12.51584 26034 ft 425 kts 174°
2026-05-07 15:54 56.38347 12.52284 26533 ft 428 kts 174°
2026-05-07 15:54 56.35408 12.52985 27019 ft 432 kts 174°
2026-05-07 15:55 56.32382 12.53704 27503 ft 435 kts 174°
2026-05-07 15:55 56.29398 12.54412 27959 ft 439 kts 173°
2026-05-07 15:55 56.26356 12.55134 28399 ft 442 kts 173°
2026-05-07 15:55 56.23281 12.55862 28821 ft 446 kts 173°
2026-05-07 15:56 56.20216 12.56586 29242 ft 449 kts 173°
2026-05-07 15:56 56.17084 12.57066 29632 ft 451 kts 179°
2026-05-07 15:56 56.13954 12.56884 30024 ft 454 kts 186°
2026-05-07 15:56 56.10782 12.56253 30382 ft 457 kts 187°
2026-05-07 15:57 56.07626 12.55619 30738 ft 460 kts 187°
2026-05-07 15:57 56.04419 12.54988 31098 ft 463 kts 187°
2026-05-07 15:57 56.01219 12.54370 31492 ft 464 kts 187°
2026-05-07 15:57 55.98021 12.53759 31939 ft 464 kts 186°
2026-05-07 15:58 55.94818 12.53149 32401 ft 464 kts 186°
2026-05-07 15:58 55.91575 12.52533 32880 ft 463 kts 186°
2026-05-07 15:58 55.88380 12.51928 33336 ft 462 kts 186°
2026-05-07 15:58 55.85198 12.51326 33792 ft 462 kts 186°
2026-05-07 15:59 55.82000 12.50722 34216 ft 461 kts 186°
2026-05-07 15:59 55.78820 12.50123 34599 ft 460 kts 186°
2026-05-07 15:59 55.75625 12.49522 34982 ft 459 kts 186°
2026-05-07 15:59 55.72400 12.48914 34754 ft 473 kts 186°
2026-05-07 16:00 55.69135 12.48300 35204 ft 467 kts 186°
2026-05-07 16:00 55.65946 12.47707 35940 ft 456 kts 187°
2026-05-07 16:00 55.62821 12.47126 36549 ft 449 kts 187°
2026-05-07 16:00 55.59719 12.46549 36961 ft 446 kts 187°
2026-05-07 16:01 55.56635 12.45974 37112 ft 445 kts 187°
2026-05-07 16:01 55.50475 12.44828 37122 ft 445 kts 187°
2026-05-07 16:02 55.44329 12.43689 37119 ft 444 kts 187°
2026-05-07 16:02 55.38190 12.42554 37109 ft 443 kts 187°
2026-05-07 16:03 55.32045 12.41422 37107 ft 443 kts 187°
2026-05-07 16:03 55.25911 12.40295 37099 ft 443 kts 187°
2026-05-07 16:04 55.19895 12.38198 37089 ft 440 kts 198°
2026-05-07 16:04 55.15045 12.35481 37091 ft 440 kts 198°
2026-05-07 16:05 55.09204 12.32226 37085 ft 439 kts 198°
2026-05-07 16:05 55.03381 12.29008 37084 ft 439 kts 198°
2026-05-07 16:06 54.96601 12.25281 37085 ft 439 kts 198°
2026-05-07 16:06 54.91715 12.22604 37083 ft 439 kts 198°
2026-05-07 16:07 54.85884 12.19417 37085 ft 439 kts 198°
2026-05-07 16:07 54.80045 12.16236 37091 ft 443 kts 198°
2026-05-07 16:08 54.74105 12.13008 37088 ft 456 kts 198°
2026-05-07 16:08 54.68020 12.09714 37088 ft 457 kts 198°
2026-05-07 16:09 54.61968 12.06448 37085 ft 457 kts 198°
2026-05-07 16:09 54.55896 12.03181 37083 ft 456 kts 198°
2026-05-07 16:10 54.49828 11.99926 37079 ft 456 kts 198°
2026-05-07 16:10 54.43775 11.96689 37081 ft 456 kts 198°
2026-05-07 16:11 54.37726 11.93464 37072 ft 456 kts 198°
2026-05-07 16:11 54.31663 11.90242 37064 ft 455 kts 198°
2026-05-07 16:12 54.25638 11.87050 37063 ft 455 kts 198°
2026-05-07 16:12 54.19593 11.83857 37057 ft 455 kts 198°
2026-05-07 16:13 54.13528 11.80663 37058 ft 455 kts 198°
2026-05-07 16:13 54.07487 11.77492 37053 ft 455 kts 198°
2026-05-07 16:14 54.01442 11.74329 37050 ft 455 kts 198°
2026-05-07 16:14 53.95395 11.71173 37042 ft 454 kts 198°
2026-05-07 16:15 53.89339 11.68023 37037 ft 455 kts 198°
2026-05-07 16:15 53.83283 11.64882 37028 ft 454 kts 198°
2026-05-07 16:16 53.77233 11.61753 37031 ft 455 kts 198°
2026-05-07 16:16 53.71194 11.58641 37022 ft 454 kts 198°
2026-05-07 16:17 53.65119 11.55518 37015 ft 455 kts 198°
2026-05-07 16:17 53.59108 11.52438 37012 ft 454 kts 198°
2026-05-07 16:18 53.53037 11.49337 37010 ft 454 kts 198°
2026-05-07 16:18 53.46985 11.46254 37006 ft 453 kts 198°
2026-05-07 16:19 53.40973 11.43201 37002 ft 454 kts 198°
2026-05-07 16:19 53.34918 11.40135 36997 ft 453 kts 198°
2026-05-07 16:20 53.28885 11.37089 36995 ft 453 kts 198°
2026-05-07 16:20 53.22830 11.34042 36993 ft 453 kts 198°
2026-05-07 16:21 53.16788 11.31008 37066 ft 453 kts 198°
2026-05-07 16:21 53.10767 11.27848 37068 ft 452 kts 202°
2026-05-07 16:22 53.04939 11.23989 37067 ft 453 kts 202°
2026-05-07 16:22 52.99072 11.20102 37065 ft 452 kts 202°
2026-05-07 16:23 52.93214 11.16254 37067 ft 452 kts 202°
2026-05-07 16:23 52.87368 11.12431 37069 ft 452 kts 202°
2026-05-07 16:24 52.81506 11.08609 37069 ft 452 kts 202°
2026-05-07 16:24 52.75651 11.04802 37069 ft 451 kts 202°
2026-05-07 16:25 52.69803 11.01011 37073 ft 452 kts 202°
2026-05-07 16:25 52.63989 10.97253 37071 ft 451 kts 202°
2026-05-07 16:26 52.58147 10.93487 37075 ft 451 kts 202°
2026-05-07 16:26 52.52294 10.89725 37082 ft 451 kts 202°
2026-05-07 16:27 52.46423 10.85962 37089 ft 450 kts 202°
2026-05-07 16:27 52.40621 10.82255 37094 ft 448 kts 202°
2026-05-07 16:27 52.37720 10.80406 37098 ft 436 kts 202°
2026-05-07 16:28 52.34949 10.78654 37099 ft 428 kts 201°
2026-05-07 16:28 52.29271 10.75410 37101 ft 434 kts 200°
2026-05-07 16:29 52.23563 10.72214 37100 ft 433 kts 200°
2026-05-07 16:29 52.17882 10.68997 37097 ft 432 kts 200°
2026-05-07 16:30 52.12210 10.65780 37092 ft 432 kts 200°
2026-05-07 16:30 52.06520 10.62561 37087 ft 432 kts 200°
2026-05-07 16:31 52.00847 10.59360 37075 ft 431 kts 200°
2026-05-07 16:31 51.95178 10.56170 37068 ft 431 kts 200°
2026-05-07 16:32 51.89519 10.52995 37063 ft 430 kts 200°
2026-05-07 16:32 51.83860 10.49827 37061 ft 429 kts 200°
2026-05-07 16:33 51.78212 10.46675 37062 ft 430 kts 200°
2026-05-07 16:33 51.72553 10.43525 36961 ft 431 kts 200°
2026-05-07 16:33 51.69715 10.41948 36706 ft 431 kts 200°
2026-05-07 16:34 51.66887 10.40379 36451 ft 431 kts 200°
2026-05-07 16:34 51.64047 10.38805 36198 ft 431 kts 200°
2026-05-07 16:34 51.61219 10.37240 35948 ft 431 kts 200°
2026-05-07 16:34 51.58378 10.35670 35703 ft 431 kts 200°
2026-05-07 16:35 51.55574 10.34123 35457 ft 431 kts 200°
2026-05-07 16:35 51.52722 10.32551 35113 ft 431 kts 200°
2026-05-07 16:35 51.49890 10.30992 34254 ft 431 kts 200°
2026-05-07 16:35 51.47043 10.29426 32960 ft 434 kts 200°
2026-05-07 16:36 51.44183 10.27855 31735 ft 435 kts 200°
2026-05-07 16:36 51.41340 10.26296 30852 ft 428 kts 200°
2026-05-07 16:36 51.38539 10.24764 30416 ft 424 kts 199°
2026-05-07 16:36 51.35711 10.23300 30191 ft 428 kts 196°
2026-05-07 16:37 51.32800 10.22303 30067 ft 427 kts 189°
2026-05-07 16:37 51.26875 10.21775 30058 ft 429 kts 181°
2026-05-07 16:38 51.20869 10.21687 29763 ft 428 kts 182°
2026-05-07 16:38 51.17895 10.21630 29480 ft 426 kts 182°
2026-05-07 16:38 51.14944 10.21571 29187 ft 424 kts 182°
2026-05-07 16:38 51.12028 10.21513 28895 ft 423 kts 182°
2026-05-07 16:39 51.09094 10.21459 28634 ft 422 kts 182°
2026-05-07 16:39 51.06155 10.21407 28351 ft 420 kts 182°
2026-05-07 16:39 51.03202 10.21346 28069 ft 418 kts 184°
2026-05-07 16:39 51.00362 10.20643 27807 ft 415 kts 197°
2026-05-07 16:40 50.97700 10.18846 27531 ft 414 kts 211°
2026-05-07 16:40 50.95418 10.16086 27268 ft 412 kts 223°
2026-05-07 16:40 50.93357 10.12959 26993 ft 410 kts 223°
2026-05-07 16:40 50.91306 10.09861 26745 ft 408 kts 223°
2026-05-07 16:41 50.89247 10.06775 26491 ft 407 kts 223°
2026-05-07 16:41 50.87188 10.03704 26229 ft 406 kts 223°
2026-05-07 16:41 50.85140 10.00662 25982 ft 404 kts 223°
2026-05-07 16:41 50.83080 9.97609 25726 ft 403 kts 223°
2026-05-07 16:42 50.81039 9.94587 25476 ft 402 kts 223°
2026-05-07 16:42 50.79005 9.91579 25230 ft 400 kts 223°
2026-05-07 16:42 50.76974 9.88579 25083 ft 399 kts 223°
2026-05-07 16:42 50.74951 9.85596 25047 ft 400 kts 223°
2026-05-07 16:43 50.72918 9.82601 25049 ft 400 kts 223°
2026-05-07 16:43 50.70874 9.79592 25050 ft 400 kts 223°
2026-05-07 16:43 50.69500 9.77573 25047 ft 400 kts 223°
2026-05-07 16:43 50.67487 9.74617 25031 ft 400 kts 223°
2026-05-07 16:44 50.65426 9.71594 24817 ft 400 kts 223°
2026-05-07 16:44 50.63277 9.68837 24567 ft 398 kts 215°
2026-05-07 16:44 50.60937 9.66579 24332 ft 397 kts 208°
2026-05-07 16:44 50.58406 9.64805 24118 ft 396 kts 201°
2026-05-07 16:45 50.55832 9.63273 24049 ft 396 kts 201°
2026-05-07 16:45 50.53258 9.61714 24046 ft 397 kts 202°
2026-05-07 16:45 50.50730 9.59988 24049 ft 396 kts 210°
2026-05-07 16:45 50.48536 9.57344 24050 ft 396 kts 226°
2026-05-07 16:46 50.46904 9.53905 24047 ft 397 kts 241°
2026-05-07 16:46 50.45901 9.49882 24051 ft 398 kts 253°
2026-05-07 16:46 50.45130 9.45708 24050 ft 397 kts 253°
2026-05-07 16:46 50.44356 9.41556 24047 ft 397 kts 252°
2026-05-07 16:47 50.43565 9.37352 24049 ft 397 kts 252°
2026-05-07 16:47 50.42785 9.33241 24049 ft 398 kts 252°
2026-05-07 16:47 50.41994 9.29083 24046 ft 397 kts 252°
2026-05-07 16:47 50.41196 9.24938 23843 ft 397 kts 251°
2026-05-07 16:48 50.40260 9.20871 23844 ft 397 kts 249°
2026-05-07 16:48 50.39310 9.16804 23845 ft 396 kts 249°
2026-05-07 16:48 50.38372 9.12762 23842 ft 396 kts 249°
2026-05-07 16:48 50.37424 9.08671 23844 ft 396 kts 249°
2026-05-07 16:49 50.36495 9.04666 23844 ft 396 kts 249°
2026-05-07 16:49 50.35547 9.00591 23838 ft 396 kts 249°
2026-05-07 16:49 50.34598 8.96527 23839 ft 395 kts 249°
2026-05-07 16:49 50.33326 8.92726 23839 ft 394 kts 234°
2026-05-07 16:50 50.31448 8.89634 23846 ft 395 kts 218°
2026-05-07 16:50 50.29058 8.87439 23868 ft 398 kts 203°
2026-05-07 16:50 50.26384 8.86361 23884 ft 400 kts 187°
2026-05-07 16:50 50.23601 8.86465 23899 ft 403 kts 172°
2026-05-07 16:51 50.20914 8.87701 23912 ft 406 kts 160°
2026-05-07 16:51 50.18431 8.89822 23914 ft 409 kts 144°
2026-05-07 16:51 50.16396 8.92914 23906 ft 412 kts 129°
2026-05-07 16:51 50.14953 8.96764 23897 ft 414 kts 114°
2026-05-07 16:52 50.14213 9.01076 23874 ft 417 kts 98°
2026-05-07 16:52 50.14228 9.05599 23847 ft 419 kts 82°
2026-05-07 16:52 50.15027 9.10034 23825 ft 421 kts 66°
2026-05-07 16:52 50.16515 9.13906 23825 ft 423 kts 51°
2026-05-07 16:53 50.18627 9.17087 23822 ft 423 kts 36°
2026-05-07 16:53 50.21150 9.19430 23824 ft 423 kts 26°
2026-05-07 16:53 50.23816 9.21469 23816 ft 423 kts 25°
2026-05-07 16:53 50.26458 9.23460 24046 ft 423 kts 28°
2026-05-07 16:54 50.28862 9.26099 24048 ft 423 kts 43°
2026-05-07 16:54 50.30771 9.29608 24052 ft 423 kts 57°
2026-05-07 16:54 50.32186 9.33618 24048 ft 423 kts 66°
2026-05-07 16:54 50.33322 9.37863 24046 ft 422 kts 70°
2026-05-07 16:55 50.34327 9.42190 24047 ft 422 kts 71°
2026-05-07 16:55 50.35291 9.46528 24044 ft 422 kts 73°
2026-05-07 16:55 50.35868 9.51017 24047 ft 419 kts 88°
2026-05-07 16:55 50.35665 9.55550 24044 ft 416 kts 104°
2026-05-07 16:56 50.34702 9.59805 24003 ft 410 kts 120°
2026-05-07 16:56 50.33121 9.63419 23573 ft 407 kts 134°
2026-05-07 16:56 50.28413 9.68197 21465 ft 411 kts 164°
2026-05-07 16:57 50.25583 9.69032 20120 ft 419 kts 178°
2026-05-07 16:57 50.22667 9.68965 18482 ft 424 kts 184°
2026-05-07 16:57 50.19691 9.68733 16994 ft 421 kts 184°
2026-05-07 16:57 50.16817 9.68514 15742 ft 413 kts 184°
2026-05-07 16:58 50.13959 9.68304 14504 ft 406 kts 184°
2026-05-07 16:58 50.11188 9.68108 13249 ft 399 kts 184°
2026-05-07 16:58 50.08474 9.67512 11997 ft 389 kts 197°
2026-05-07 16:58 50.06030 9.65778 10782 ft 381 kts 214°
2026-05-07 16:59 50.04113 9.63068 9591 ft 374 kts 232°
2026-05-07 16:59 50.02868 9.59576 8438 ft 366 kts 250°
2026-05-07 16:59 50.02493 9.55733 7658 ft 354 kts 272°
2026-05-07 16:59 50.02961 9.52064 7291 ft 331 kts 284°
2026-05-07 17:00 50.03549 9.48736 7110 ft 305 kts 284°
2026-05-07 17:00 50.04087 9.45723 7056 ft 278 kts 284°
2026-05-07 17:00 50.04604 9.42888 7052 ft 266 kts 284°
2026-05-07 17:00 50.05104 9.40117 7049 ft 267 kts 284°
2026-05-07 17:01 50.05607 9.37347 7019 ft 265 kts 284°
2026-05-07 17:01 50.06113 9.34573 6649 ft 267 kts 284°
2026-05-07 17:01 50.06630 9.31730 5927 ft 277 kts 284°
2026-05-07 17:01 50.07166 9.28746 4967 ft 294 kts 283°
2026-05-07 17:02 50.07714 9.25681 4415 ft 295 kts 283°
2026-05-07 17:02 50.08264 9.22612 4149 ft 297 kts 284°
2026-05-07 17:02 50.08818 9.19491 4017 ft 296 kts 284°
2026-05-07 17:02 50.09366 9.16398 3750 ft 297 kts 284°
2026-05-07 17:03 50.09916 9.13287 3748 ft 297 kts 284°
2026-05-07 17:03 50.10455 9.10202 3749 ft 296 kts 283°
2026-05-07 17:03 50.10995 9.07096 3780 ft 298 kts 283°
2026-05-07 17:03 50.11529 9.04022 3790 ft 295 kts 283°
2026-05-07 17:04 50.12070 9.00913 3813 ft 298 kts 283°
2026-05-07 17:04 50.12522 8.97812 3824 ft 286 kts 274°
2026-05-07 17:04 50.12426 8.94815 3844 ft 266 kts 258°
2026-05-07 17:04 50.11971 8.92132 3860 ft 248 kts 252°
2026-05-07 17:05 50.11390 8.89574 3880 ft 255 kts 249°
2026-05-07 17:05 50.10778 8.87009 3890 ft 252 kts 249°
2026-05-07 17:05 50.10170 8.84458 3913 ft 250 kts 249°
2026-05-07 17:05 50.09554 8.81875 3725 ft 254 kts 250°
2026-05-07 17:06 50.08945 8.79325 3393 ft 253 kts 250°
2026-05-07 17:06 50.08333 8.76762 3048 ft 250 kts 250°
2026-05-07 17:06 50.07734 8.74251 2737 ft 247 kts 251°
2026-05-07 17:06 50.07128 8.71718 2417 ft 252 kts 252°
2026-05-07 17:07 50.06518 8.69161 2078 ft 253 kts 252°
2026-05-07 17:07 50.05910 8.66614 1730 ft 250 kts 251°
2026-05-07 17:07 50.05317 8.64140 1333 ft 236 kts 252°
2026-05-07 17:07 50.04729 8.61652 919 ft 251 kts 250°
2026-05-07 17:08 50.04128 8.59119 486 ft 249 kts 249°